HI3LT-16 Weather Reports


Display with metric or nautical units.
time (UTC)temp
F
wind
direction
speed
MPH
gust
MPH
rain 1hr
in
rain 24hr
in
rain mn
in
humidity
%
barometer
mb
20260507221358 89 120 9.0 0.0 0.00 0.00 0.00 50 1013.0
20260507220357 89 120 9.0 0.0 0.00 0.00 0.00 50 1013.0
20260507215356 89 120 8.0 0.0 0.00 0.00 0.00 50 1013.0
20260507214355 89 120 8.0 0.0 0.00 0.00 0.00 50 1013.0
20260507213354 89 120 8.0 0.0 0.00 0.00 0.00 50 1013.0
20260507212352 89 120 8.0 0.0 0.00 0.00 0.00 50 1013.0
20260507211351 89 120 8.0 0.0 0.00 0.00 0.00 50 1013.0
20260507210350 89 120 8.0 0.0 0.00 0.00 0.00 50 1013.0
20260507205347 89 120 8.0 0.0 0.00 0.00 0.00 50 1013.0
20260507204345 89 120 8.0 0.0 0.00 0.00 0.00 50 1013.0
20260507203343 89 120 8.0 0.0 0.00 0.00 0.00 50 1013.0
20260507202342 89 120 8.0 0.0 0.00 0.00 0.00 50 1013.0
20260507201341 89 120 8.0 0.0 0.00 0.00 0.00 50 1013.0
20260507200339 89 120 8.0 0.0 0.00 0.00 0.00 50 1013.0
20260507195338 89 120 8.0 0.0 0.00 0.00 0.00 50 1013.0
20260507194337 89 120 8.0 0.0 0.00 0.00 0.00 50 1013.0
20260507193335 89 120 8.0 0.0 0.00 0.00 0.00 50 1013.0
20260507192334 89 120 8.0 0.0 0.00 0.00 0.00 50 1014.0
20260507191333 89 120 8.0 0.0 0.00 0.00 0.00 51 1014.0
20260507190331 89 110 8.0 0.0 0.00 0.00 0.00 52 1014.0
20260507185330 88 110 9.0 0.0 0.00 0.00 0.00 53 1014.0
20260507184329 88 110 9.0 0.0 0.00 0.00 0.00 53 1014.0
20260507183327 88 110 9.0 0.0 0.00 0.00 0.00 54 1014.0
20260507182326 88 110 9.0 0.0 0.00 0.00 0.00 55 1015.0
20260507181325 88 110 9.0 0.0 0.00 0.00 0.00 56 1015.0
20260507180323 88 90 8.0 0.0 0.00 0.00 0.00 58 1015.0
20260507175322 88 90 8.0 0.0 0.00 0.00 0.00 58 1015.0
20260507174320 88 90 8.0 0.0 0.00 0.00 0.00 58 1015.0
20260507173318 88 90 8.0 0.0 0.00 0.00 0.00 58 1015.0
20260507172315 88 90 8.0 0.0 0.00 0.00 0.00 58 1016.0
20260507171313 88 90 8.0 0.0 0.00 0.00 0.00 58 1016.0
20260507170311 88 90 9.0 0.0 0.00 0.00 0.00 58 1016.0
20260507165308 88 90 9.0 0.0 0.00 0.00 0.00 58 1016.0
20260507164306 88 90 9.0 0.0 0.00 0.00 0.00 58 1016.0
20260507163304 88 90 9.0 0.0 0.00 0.00 0.00 58 1016.0
20260507162301 88 90 9.0 0.0 0.00 0.00 0.00 58 1016.0
20260507161300 88 90 9.0 0.0 0.00 0.00 0.00 58 1016.0
20260507160259 83 90 8.0 0.0 0.00 0.00 0.00 63 1016.0
20260507155257 83 90 8.0 0.0 0.00 0.00 0.00 63 1016.0
20260507154255 83 90 8.0 0.0 0.00 0.00 0.00 63 1016.0
20260507153253 83 90 8.0 0.0 0.00 0.00 0.00 63 1016.0
20260507152250 83 90 8.0 0.0 0.00 0.00 0.00 64 1017.0
20260507151248 83 90 8.0 0.0 0.00 0.00 0.00 65 1017.0
20260507150247 82 90 9.0 0.0 0.00 0.00 0.00 67 1017.0
20260507145246 82 90 9.0 0.0 0.00 0.00 0.00 67 1017.0
20260507144244 82 90 9.0 0.0 0.00 0.00 0.00 67 1017.0
20260507143243 82 90 9.0 0.0 0.00 0.00 0.00 68 1017.0
20260507142241 81 90 9.0 0.0 0.00 0.00 0.00 69 1017.0
20260507141238 80 90 9.0 0.0 0.00 0.00 0.00 71 1017.0
20260507140237 79 110 6.0 0.0 0.00 0.00 0.00 74 1017.0
20260507135236 79 110 6.0 0.0 0.00 0.00 0.00 74 1017.0
20260507134235 79 110 6.0 0.0 0.00 0.00 0.00 74 1017.0
20260507133234 79 110 6.0 0.0 0.00 0.00 0.00 74 1017.0
20260507132233 79 110 6.0 0.0 0.00 0.00 0.00 74 1017.0
20260507131232 79 110 6.0 0.0 0.00 0.00 0.00 74 1017.0
20260507130232 72 120 4.0 0.0 0.00 0.00 0.00 94 1017.0
20260507125230 72 120 4.0 0.0 0.00 0.00 0.00 94 1017.0
20260507124229 72 120 4.0 0.0 0.00 0.00 0.00 94 1017.0
20260507123228 70 120 4.0 0.0 0.00 0.00 0.00 95 1017.0
20260507122226 70 120 4.0 0.0 0.00 0.00 0.00 95 1016.0
20260507121225 70 120 4.0 0.0 0.00 0.00 0.00 95 1016.0
20260507120224 70 100 4.0 0.0 0.00 0.00 0.00 95 1016.0
20260507115223 70 100 4.0 0.0 0.00 0.00 0.00 95 1016.0
20260507114221 70 100 4.0 0.0 0.00 0.00 0.00 95 1016.0
20260507113220 70 100 4.0 0.0 0.00 0.00 0.00 95 1016.0
20260507112219 70 100 4.0 0.0 0.00 0.00 0.00 95 1016.0
20260507111217 70 100 4.0 0.0 0.00 0.00 0.00 95 1016.0
20260507110216 70 110 4.0 0.0 0.00 0.00 0.00 95 1016.0
20260507105215 70 110 4.0 0.0 0.00 0.00 0.00 95 1016.0
20260507104214 70 110 4.0 0.0 0.00 0.00 0.00 95 1016.0
20260507103212 70 110 4.0 0.0 0.00 0.00 0.00 95 1016.0
20260507102211 70 110 4.0 0.0 0.00 0.00 0.00 95 1016.0
20260507101210 70 110 4.0 0.0 0.00 0.00 0.00 95 1016.0
20260507100207 70 110 4.0 0.0 0.00 0.00 0.00 95 1016.0
20260507095206 70 110 4.0 0.0 0.00 0.00 0.00 95 1016.0
20260507094204 71 110 4.0 0.0 0.00 0.00 0.00 95 1016.0
20260507093202 71 110 4.0 0.0 0.00 0.00 0.00 95 1016.0
20260507092201 71 110 4.0 0.0 0.00 0.00 0.00 95 1015.0
20260507091159 71 110 4.0 0.0 0.00 0.00 0.00 95 1015.0
20260507090157 71 110 4.0 0.0 0.00 0.00 0.00 95 1015.0
20260507085156 71 110 4.0 0.0 0.00 0.00 0.00 95 1015.0
20260507084153 71 110 4.0 0.0 0.00 0.00 0.00 95 1015.0
20260507083151 71 110 4.0 0.0 0.00 0.00 0.00 95 1015.0
20260507082149 71 110 4.0 0.0 0.00 0.00 0.00 95 1015.0
20260507081147 71 110 4.0 0.0 0.00 0.00 0.00 95 1015.0
20260507080145 71 110 4.0 0.0 0.00 0.00 0.00 95 1015.0
20260507075144 71 110 4.0 0.0 0.00 0.00 0.00 95 1015.0
20260507074143 71 110 4.0 0.0 0.00 0.00 0.00 95 1015.0
20260507073142 71 110 4.0 0.0 0.00 0.00 0.00 95 1016.0
20260507072141 71 110 4.0 0.0 0.00 0.00 0.00 95 1016.0
20260507071140 72 120 4.0 0.0 0.00 0.00 0.00 96 1016.0
20260507070139 72 120 4.0 0.0 0.00 0.00 0.00 96 1016.0
20260507065138 73 120 4.0 0.0 0.00 0.00 0.00 94 1016.0
20260507064137 73 120 4.0 0.0 0.00 0.00 0.00 94 1016.0
20260507063136 73 120 4.0 0.0 0.00 0.00 0.00 94 1016.0
20260507062134 73 120 4.0 0.0 0.00 0.00 0.00 94 1016.0
20260507061133 73 120 4.0 0.0 0.00 0.00 0.00 94 1016.0
20260507060132 73 130 4.0 0.0 0.00 0.00 0.00 94 1016.0
20260507055131 73 130 4.0 0.0 0.00 0.00 0.00 94 1016.0
20260507054130 73 130 4.0 0.0 0.00 0.00 0.00 94 1016.0
20260507053127 73 130 4.0 0.0 0.00 0.00 0.00 94 1016.0
20260507052125 73 130 4.0 0.0 0.00 0.00 0.00 94 1017.0
20260507051123 73 100 4.0 0.0 0.00 0.00 0.00 94 1017.0
20260507050122 73 100 4.0 0.0 0.00 0.00 0.00 94 1017.0
20260507045121 73 100 4.0 0.0 0.00 0.00 0.00 94 1017.0
20260507044119 74 100 4.0 0.0 0.00 0.00 0.00 94 1017.0
20260507043118 75 100 4.0 0.0 0.00 0.00 0.00 83 1017.0
20260507042116 75 100 4.0 0.0 0.00 0.00 0.00 83 1017.0
20260507041115 75 110 4.0 0.0 0.00 0.00 0.00 83 1017.0
20260507040113 75 110 4.0 0.0 0.00 0.00 0.00 83 1017.0
20260507035112 75 110 4.0 0.0 0.00 0.00 0.00 83 1017.0
20260507034111 75 110 4.0 0.0 0.00 0.00 0.00 83 1017.0
20260507033108 75 110 4.0 0.0 0.00 0.00 0.00 83 1017.0
20260507032107 75 110 4.0 0.0 0.00 0.00 0.00 83 1017.0
20260507031106 75 110 4.0 0.0 0.00 0.00 0.00 83 1017.0
20260507025101 77 70 5.0 0.0 0.00 0.00 0.00 78 1017.0
20260507024059 77 70 5.0 0.0 0.00 0.00 0.00 78 1017.0
20260507023057 77 70 5.0 0.0 0.00 0.00 0.00 78 1017.0
20260507022055 77 70 5.0 0.0 0.00 0.00 0.00 78 1017.0
20260507021053 77 70 5.0 0.0 0.00 0.00 0.00 78 1017.0
20260507020051 79 60 6.0 0.0 0.00 0.00 0.00 65 1017.0
20260507015049 79 60 6.0 0.0 0.00 0.00 0.00 65 1017.0
20260507014048 79 60 6.0 0.0 0.00 0.00 0.00 65 1017.0
20260507013045 79 60 6.0 0.0 0.00 0.00 0.00 65 1017.0
20260507012043 79 60 6.0 0.0 0.00 0.00 0.00 65 1016.0
20260507011042 79 60 6.0 0.0 0.00 0.00 0.00 65 1016.0
20260507010041 81 60 9.0 0.0 0.00 0.00 0.00 61 1016.0
20260507005039 81 60 9.0 0.0 0.00 0.00 0.00 61 1016.0
20260507004038 81 60 9.0 0.0 0.00 0.00 0.00 61 1016.0
20260507003037 81 60 9.0 0.0 0.00 0.00 0.00 61 1016.0
20260507002036 81 60 9.0 0.0 0.00 0.00 0.00 61 1016.0
20260507001035 83 90 8.0 0.0 0.00 0.00 0.00 61 1016.0
20260507000033 83 90 8.0 0.0 0.00 0.00 0.00 61 1016.0
20260506235031 83 90 8.0 0.0 0.00 0.00 0.00 61 1016.0
20260506234030 83 90 8.0 0.0 0.00 0.00 0.00 61 1016.0
20260506233027 82 90 8.0 0.0 0.00 0.00 0.00 61 1016.0
20260506232026 83 90 8.0 0.0 0.00 0.00 0.00 61 1015.0
20260506231025 83 90 8.0 0.0 0.00 0.00 0.00 61 1015.0
20260506230023 88 100 10.0 0.0 0.00 0.00 0.00 55 1015.0
20260506225022 88 100 10.0 0.0 0.00 0.00 0.00 55 1015.0
20260506224020 88 100 10.0 0.0 0.00 0.00 0.00 55 1015.0
20260506223019 88 100 13.0 0.0 0.00 0.00 0.00 53 1015.0
20260506222017 88 100 13.0 0.0 0.00 0.00 0.00 53 1014.0